User: anonymous   Login
Location: Camoruquito
(9.9001°N, 67.3564°W)
Time: 11:38:09
(UTC+00:00)
Language:

Cosmos 1939 Rocket - Orbit

View from above orbital plane
View from above orbital plane
View from above satellite
View from above satellite

Ground track
Ground track

The orbit data is extracted from the following two-line orbital elements,

1 19046U 88032B   24171.90731071  .00003692  00000-0  22829-3 0  9990
2 19046  97.4480 153.6090 0030231 248.1008 111.7006 15.10081221957020
Epoch (UTC): 19 June 2024 21:46:31
Eccentricity: 0.0030231
inclination: 97.4480°
perigee height: 515 km
apogee height: 557 km
right ascension of ascending node: 153.6090°
argument of perigee: 248.1008°
revolutions per day: 15.10081221
mean anomaly at epoch: 111.7006°
orbit number at epoch: 95702

The dashed part of the orbit path shows where the satellite is in the earth's shadow,  

DLR